Regional Weather Roundup
Issued by NWS Kansas City/Pleasant Hill, MO

Home | Current Version | Previous Version | Text Only | Print | Product List | Glossary On
Versions: 1 2 3 4 5 6 7 8 9 10 11 12 13 14 15 16 17 18 19 20 21 22 23 24 25 26 27 28 29 30 31 32 33 34 35 36 37 38 39 40 41 42 43 44 45 46 47 48 49 50
000
ASUS43 KEAX 220710
RWREAX

WEATHER ROUNDUP FOR EASTERN KANSAS AND NORTHWEST MISSOURI
NATIONAL WEATHER SERVICE KANSAS CITY/PLEASANT HILL MO
200 AM CDT FRI AUG 22 2014

KSZ040-057-103>105-MOZ028-029-037-043-220800-
...KANSAS CITY METROPOLITAN AREA...

CITY           SKY/WX    TMP DP  RH WIND       PRES   REMARKS
K.C. INTL      PTCLDY    82  71  69 S16       29.90F
K.C. DOWNTOWN  CLEAR     84  71  65 S14       29.89F
LEES SUMMIT    CLEAR     81  71  71 S9        29.93F
OLATHE - IXD   CLEAR     80  71  74 S12       29.92F
OLATHE - OJC   CLEAR     79  71  76 S10       29.92F
LAWRENCE       PTCLDY    85  71  63 S10       29.90F HX  90

$$

MOZ001>008-011>017-020>025-030>033-038>040-044>046-053-054-220800-
...NORTHERN AND CENTRAL MISSOURI...

CITY           SKY/WX    TMP DP  RH WIND       PRES   REMARKS
ST. JOSEPH     PTCLDY    81  73  76 S9        29.88F
MOSBY          SUNNY     82  70  65 S7        29.90F
WHITEMAN AFB   CLEAR     76  68  76 S9        29.95F
CLINTON        CLEAR     79  72  78 S6        29.97F
SEDALIA        CLEAR     80  70  71 S10       29.97F
WARSAW         NOT AVBL
MARSHALL       CLEAR     79  73  83 S8        29.94F
CHILLICOTHE      N/A     81  71  71 S7        29.90F
MOBERLY        CLEAR     81  70  69 SW12      29.95S
KIRKSVILLE     CLEAR     81  72  74 SW9       29.92S

$$

MOZ041-047>049-056>058-063>065-088>090-097-220800-
...EASTERN AND SOUTHERN MISSOURI...

CITY           SKY/WX    TMP DP  RH WIND       PRES   REMARKS
ST. LOUIS INTL PTCLDY    85  70  60 SW15      29.96F
SPIRIT OF STL  CLEAR     80  69  69 SW9       29.95S
COLUMBIA       CLEAR     77  70  79 SW10      29.98R
JEFFERSON CITY CLEAR     80  69  69 S6        29.97R
MEXICO         CLEAR     77  77 100 SW8       29.95S
HANNIBAL       CLEAR     79  72  78 S8        29.92S
ROLLA          CLEAR     76  67  73 S7        30.01R
LEBANON        CLEAR     77  68  73 S7        30.04S
OSAGE BEACH    CLEAR     79  66  65 S7        30.00S
SPRINGFIELD    CLEAR     77  70  79 S9        30.02S
BRANSON        CLEAR     75  72  88 S5        30.05S
JOPLIN         CLEAR     80  71  74 S12       29.99S
WEST PLAINS    CLEAR     74  67  78 SW3       30.06F

$$

IAZ060-094-KSZ022-034>040-054-083-096-NEZ052-066-093-220800-
...KANSAS...SOUTHEAST NEBRASKA AND IOWA...

CITY           SKY/WX    TMP DP  RH WIND       PRES   REMARKS
TOPEKA         MOCLDY    85  73  67 VRB7      29.90R HX  91
MANHATTAN      CLOUDY    80  69  69 W3        29.88F
EMPORIA        CLEAR     80  71  74 S13G23    29.92S
CHANUTE        CLEAR     80  71  74 S9        29.96R
WICHITA        PTCLDY    82  70  66 S14       29.92F
OMAHA          CLOUDY    76  73  91 N7        29.86S
LINCOLN        CLOUDY    77  73  87 NE3       29.87S
FALLS CITY     CLOUDY    82  72  71 S7        29.85F
LAMONI         PTCLDY    80  73  79 SW12      29.88F
DES MOINES     CLOUDY    80  75  84 S7        29.85S

$$




USA.gov is the U.S. government's official web portal to all federal, state and local government web resources and services.